Home > Weather > Bamberg > Past weeks

Flag for Germany Weather for the Past 2 Weeks in Bamberg, Bavaria, Germany

Now
37 °F

Clear.


Feels Like: 37 °F
Forecast: 44 / 62 °F
Wind: 1 mph from Northeast

Location: Nuernberg

Current Time: Apr 30, 2016 at 2:28:56 AM

Latest Report: Apr 30, 2016 at 1:50 AM


Visibility: 10 mi

Pressure: 30.04 "Hg

Humidity: 81%

Dew Point: 32 °F

Location of BambergLocation

Historic Weather in Bamberg — Graph

°F

Bamberg Temperature Yesterday

Maximum temperature yesterday: 57 °F (at 3:20 PM)
Minimum temperature yesterday: 28 °F (at 5:20 AM)
Average temperature yesterday: 45 °F

High & Low Weather Summary for the Past Weeks

 TemperatureHumidityPressure
High66 °F (Apr 21, 3:50 PM)100% (Apr 18, 6:50 AM)30.42 "Hg (Apr 18, 6:50 AM)
Low28 °F (Apr 29, 5:20 AM)22% (Apr 21, 4:20 PM)29.50 "Hg (Apr 26, 6:50 AM)
Average45 °F72%29.94 "Hg
* Reported Apr 15 1:20 AM — Apr 30 1:20 AM, Bamberg, Weather by CustomWeather, © 2016

Note: Actual official high and low records may vary slightly from our data, if they occured in-between our weather recording intervals... More about our weather records

Advertising

Bamberg Weather History for the Previous 24 Hours

Scroll right to see more
 ConditionsComfort  
Time TempWeatherWind HumidityBarometerVisibility
1:20 AM
Sat, Apr 30
37 °FClear.1 mph81%30.04 "Hg10 mi
12:50 AM39 °FClear.1 mph75%30.04 "Hg10 mi
12:20 AM39 °FClear.No wind75%30.04 "Hg10 mi
11:50 PM
Fri, Apr 29
43 °FClear.5 mph66%30.04 "Hg10 mi
11:20 PM43 °FClear.5 mph61%30.04 "Hg10 mi
10:20 PM43 °FClear.2 mph66%30.04 "Hg10 mi
9:50 PM48 °FClear.1 mph50%30.04 "Hg10 mi
9:20 PM46 °FSunny.2 mph57%30.04 "Hg10 mi
8:50 PM50 °FSunny.2 mph50%30.04 "Hg10 mi
8:20 PM52 °FSunny.2 mph44%30.04 "Hg10 mi
7:50 PM55 °FSunny.2 mph36%30.01 "Hg10 mi
7:20 PM57 °FPassing clouds.6 mph33%30.01 "HgN/A
6:50 PM57 °FPassing clouds.9 mph33%30.01 "HgN/A
6:20 PM57 °FSunny.5 mph33%30.04 "Hg10 mi
5:50 PM57 °FPassing clouds.8 mph31%30.04 "HgN/A
5:20 PM57 °FPassing clouds.8 mph33%30.04 "HgN/A
4:50 PM57 °FPassing clouds.9 mph33%30.04 "HgN/A
4:20 PM57 °FPassing clouds.7 mph36%30.04 "HgN/A
3:50 PM57 °FSunny.3 mph33%30.04 "Hg10 mi
3:20 PM57 °FPassing clouds.7 mph33%30.07 "HgN/A
2:50 PM55 °FPassing clouds.8 mph36%30.07 "HgN/A
2:20 PM55 °FPassing clouds.10 mph41%30.07 "HgN/A
1:50 PM55 °FSunny.7 mph41%30.07 "Hg10 mi
1:20 PM52 °FPassing clouds.8 mph44%30.07 "HgN/A
12:50 PM52 °FPassing clouds.10 mph47%30.07 "HgN/A
12:20 PM52 °FPassing clouds.6 mph47%30.07 "HgN/A
11:50 AM52 °FPartly sunny.6 mph50%30.07 "HgN/A
11:20 AM52 °FScattered clouds.7 mph54%30.09 "HgN/A
10:50 AM50 °FPassing clouds.9 mph58%30.09 "HgN/A
10:20 AM48 °FPassing clouds.8 mph58%30.09 "HgN/A
9:50 AM48 °FPassing clouds.7 mph62%30.09 "HgN/A
9:20 AM45 °FPassing clouds.5 mph71%30.09 "HgN/A
8:50 AM41 °FPassing clouds.6 mph76%30.09 "HgN/A
8:20 AM39 °FSunny.5 mph81%30.09 "Hg10 mi
7:20 AM32 °FSunny.5 mph93%30.07 "Hg10 mi
6:50 AM30 °FClear.3 mph93%30.07 "Hg10 mi
6:20 AM28 °FClear.5 mph100%30.07 "Hg10 mi
5:50 AM30 °FFog.2 mph93%30.07 "Hg4 mi
5:20 AM28 °FFog.5 mph93%30.07 "Hg4 mi
4:20 AM30 °FFog.5 mph93%30.07 "Hg4 mi
3:50 AM30 °FFog.3 mph93%30.07 "Hg4 mi
3:20 AM30 °FClear.6 mph100%30.07 "Hg5 mi
2:50 AM30 °FClear.5 mph100%30.07 "Hg4 mi
2:20 AM32 °FFog.1 mph93%30.07 "Hg6 mi
Weather by CustomWeather, © 2016

See weather overviewHow to use our weather pages